Location: Aulagny
(45.1643°N, 4.3096°E)
Time: 06:10:00
(UTC+00:00)

Cosmos 1802 Rocket - Pass Details

Date: 21 October 2019
Orbit: 955 x 1011 km, 82.9° (Epoch: 11 November)

Event Time Altitude Azimuth Distance (km) Brightness Sun altitude
Rises 19:13:03 0° 350° (N) 3,756 7.3 -26.2°
Reaches altitude 10° 19:15:37 10° 348° (NNW) 2,800 6.6 -26.6°
Maximum altitude 19:22:02 75° 265° (W) 1,045 4.1 -27.7°
Enters shadow 19:26:33 20° 184° (S) 2,103 5.6 -28.5°
